FW4672 Weather Reports


Display with metric or nautical units.
time (UTC)temp
F
wind
direction
speed
MPH
gust
MPH
rain 1hr
in
rain 24hr
in
rain mn
in
humidity
%
barometer
mb
20260507094927 60 337 0.0 0.0 0.00 0.00 0.00 89 1035.3
20260507093926 60 337 0.0 0.0 0.00 0.00 0.00 89 1035.3
20260507092927 60 328 0.0 0.0 0.00 0.00 0.00 90 1035.4
20260507091927 60 315 0.0 0.0 0.00 0.00 0.00 90 1035.4
20260507091026 60 316 0.0 0.0 0.00 0.00 0.00 89 1035.5
20260507090025 60 337 0.0 0.0 0.00 0.00 0.00 90 1035.6
20260507085026 60 315 0.0 0.0 0.00 0.00 0.00 89 1035.7
20260507084026 60 315 0.0 0.0 0.00 0.00 0.00 89 1035.8
20260507083027 60 315 0.0 0.0 0.00 0.00 0.00 89 1035.9
20260507082125 60 315 0.0 0.0 0.00 0.00 0.00 90 1036.0
20260507080126 60 315 0.0 0.0 0.00 0.00 0.00 90 1036.2
20260507080025 60 315 0.0 0.0 0.00 0.00 0.00 89 1036.2
20260507074026 59 315 0.0 0.0 0.00 0.00 0.00 90 1036.2
20260507073028 59 337 0.0 0.0 0.00 0.00 0.00 90 1036.2
20260507072026 59 360 0.0 0.0 0.00 0.00 0.00 90 1036.2
20260507071025 58 360 0.0 0.0 0.00 0.00 0.00 90 1036.4
20260507061124 59 360 0.0 0.0 0.00 0.00 0.00 88 1036.4
20260507060127 59 360 0.0 0.0 0.00 0.00 0.00 88 1036.5
20260507055224 59 360 0.0 0.0 0.00 0.00 0.00 88 1036.5
20260507054226 59 337 0.0 0.0 0.00 0.00 0.00 88 1036.5
20260507053226 59 328 0.0 0.0 0.00 0.00 0.00 88 1036.5
20260507052224 59 337 0.0 0.0 0.00 0.00 0.00 88 1036.5
20260507051225 59 337 0.0 0.0 0.00 0.00 0.00 88 1036.5
20260507045324 60 360 0.0 0.0 0.00 0.00 0.00 89 1036.4
20260507045224 60 357 0.0 0.0 0.00 0.00 0.00 89 1036.4
20260507044226 60 360 0.0 0.0 0.00 0.00 0.00 88 1036.4
20260507043225 60 338 0.0 0.0 0.00 0.00 0.00 88 1036.2
20260507041324 60 360 0.0 0.0 0.00 0.00 0.00 89 1036.2
20260507040325 61 360 0.0 0.0 0.00 0.00 0.00 89 1036.2
20260507035325 60 355 0.0 0.0 0.00 0.00 0.00 89 1036.2
20260507034326 61 360 0.0 0.0 0.00 0.00 0.00 89 1036.1
20260507033423 61 346 0.0 0.0 0.00 0.00 0.00 89 1036.0
20260507032425 61 353 0.0 0.0 0.00 0.00 0.00 88 1035.8
20260507030425 61 349 0.0 0.0 0.00 0.00 0.00 87 1035.7
20260507025424 61 342 0.0 0.0 0.00 0.00 0.00 86 1035.7
20260507024426 62 337 0.0 0.0 0.00 0.00 0.00 86 1035.6
20260507023425 62 316 0.0 0.0 0.00 0.00 0.00 85 1035.5
20260507022424 63 351 0.0 0.0 0.00 0.00 0.00 86 1035.5
20260507021427 63 339 0.0 0.0 0.00 0.00 0.00 86 1035.3
20260507020524 64 353 0.0 0.0 0.00 0.00 0.00 86 1035.2
20260507015525 64 341 0.0 0.0 0.00 0.00 0.00 85 1035.2
20260507013525 67 327 0.0 0.0 0.00 0.00 0.00 83 1035.1
20260507011526 68 328 0.0 0.0 0.00 0.00 0.00 85 1035.1
20260507005624 68 325 0.0 0.0 0.00 0.00 0.00 86 1035.0
20260507004626 68 319 0.0 0.0 0.00 0.00 0.00 86 1034.9
20260507003624 69 322 0.0 0.0 0.00 0.00 0.00 84 1034.9
20260507002625 68 333 0.0 0.0 0.00 0.00 0.00 85 1034.8
20260507001625 69 325 0.0 0.0 0.00 0.00 0.00 86 1034.9
20260507000624 69 330 0.0 0.0 0.00 0.00 0.00 85 1034.8
20260506235625 70 328 0.0 0.0 0.00 0.00 0.00 84 1034.6
20260506234624 70 321 0.0 0.0 0.00 0.00 0.00 84 1034.6
20260506233626 70 320 0.0 0.0 0.00 0.00 0.00 85 1034.6
20260506224743 70 325 0.0 0.0 0.00 0.00 0.00 84 1035.0
20260506223725 70 318 0.0 0.0 0.00 0.00 0.00 82 1034.9
20260506221726 69 326 0.0 0.0 0.00 0.00 0.00 83 1035.2
20260506215827 69 333 0.0 0.0 0.00 0.00 0.00 84 1035.4
20260506214926 69 320 0.0 0.0 0.00 0.00 0.00 85 1035.4
20260506213925 68 325 0.0 0.0 0.00 0.00 0.00 86 1035.4
20260506212924 68 332 0.0 0.0 0.00 0.00 0.00 85 1035.5
20260506211925 68 327 0.0 0.0 0.00 0.00 0.00 86 1035.6
20260506211024 68 326 0.0 0.0 0.00 0.00 0.00 84 1035.7
20260506210025 68 319 0.0 0.0 0.00 0.00 0.00 83 1035.8
20260506205024 68 318 0.0 0.0 0.00 0.00 0.00 83 1035.8
20260506204025 68 320 0.0 0.0 0.00 0.00 0.00 85 1036.0
20260506203026 67 327 0.0 0.0 0.00 0.00 0.00 87 1036.0
20260506202123 66 318 0.0 0.0 0.00 0.00 0.00 86 1036.0
20260506201126 66 325 0.0 0.0 0.00 0.00 0.00 85 1036.1
20260506195125 66 320 0.0 0.0 0.00 0.00 0.00 83 1036.3
20260506194127 66 318 0.0 0.0 0.00 0.00 0.00 82 1036.5
20260506193225 66 324 0.0 0.0 0.00 0.00 0.00 83 1036.7
20260506192225 66 322 0.0 0.0 0.00 0.00 0.00 83 1036.7
20260506191225 66 320 0.0 0.0 0.00 0.00 0.00 83 1036.7
20260506185226 66 319 0.0 0.0 0.00 0.00 0.00 80 1036.9
20260506184226 64 320 0.0 0.0 0.00 0.00 0.00 79 1037.1
20260506183225 64 320 0.0 0.0 0.00 0.00 0.00 77 1037.0
20260506182226 63 319 0.0 0.0 0.00 0.00 0.00 79 1037.1
20260506181241 63 319 0.0 0.0 0.00 0.00 0.00 79 1037.2
20260506180323 63 320 0.0 0.0 0.00 0.00 0.00 79 1037.3
20260506175325 63 318 0.0 0.0 0.00 0.00 0.00 79 1037.3
20260506174425 63 319 0.0 0.0 0.00 0.00 0.00 79 1037.3
20260506173425 63 317 0.0 0.0 0.00 0.00 0.00 80 1037.4
20260506172425 62 316 0.0 0.0 0.00 0.00 0.00 79 1037.4
20260506171524 62 320 0.0 0.0 0.00 0.00 0.00 79 1037.5
20260506170525 62 318 0.0 0.0 0.00 0.00 0.00 82 1037.5
20260506165525 62 321 0.0 0.0 0.00 0.00 0.00 82 1037.5
20260506164524 62 330 0.0 0.0 0.00 0.00 0.00 80 1037.5
20260506163525 61 320 0.0 0.0 0.00 0.00 0.00 79 1037.6
20260506161527 61 336 0.0 0.0 0.00 0.00 0.00 79 1037.4
20260506160527 62 318 0.0 0.0 0.00 0.00 0.00 81 1037.3
20260506155526 62 315 0.0 0.0 0.00 0.00 0.00 81 1037.3
20260506153524 62 359 0.0 0.0 0.00 0.00 0.00 83 1037.3
20260506152525 62 189 0.0 0.0 0.00 0.00 0.00 78 1037.3
20260506151526 61 180 0.0 0.0 0.00 0.00 0.00 77 1037.3
20260506150624 60 214 0.0 0.0 0.00 0.00 0.00 76 1037.4
20260506145626 60 268 0.0 0.0 0.00 0.00 0.00 76 1037.3
20260506143725 58 189 0.0 0.0 0.00 0.00 0.00 78 1037.3
20260506142725 58 326 0.0 0.0 0.00 0.00 0.00 80 1037.3
20260506141725 57 239 0.0 0.0 0.00 0.00 0.00 81 1037.2
20260506140726 56 325 0.0 0.0 0.00 0.00 0.00 83 1037.1
20260506133725 54 191 0.0 0.0 0.00 0.00 0.00 85 1037.0
20260506132725 54 322 0.0 0.0 0.00 0.00 0.00 86 1037.0
20260506131724 54 325 0.0 0.0 0.00 0.00 0.00 86 1036.8
20260506130725 54 299 0.0 0.0 0.00 0.00 0.00 85 1036.7
20260506125726 54 182 0.0 0.0 0.00 0.00 0.00 86 1036.7
20260506123824 54 337 0.0 0.0 0.00 0.00 0.00 86 1036.5
20260506122824 54 268 0.0 0.0 0.00 0.00 0.00 85 1036.4
20260506115924 54 337 0.0 0.0 0.00 0.00 0.00 86 1036.4
20260506115826 54 308 0.0 0.0 0.00 0.00 0.00 85 1036.4
20260506114825 54 337 0.0 0.0 0.00 0.00 0.00 86 1036.4
20260506112924 55 337 0.0 0.0 0.00 0.00 0.00 83 1036.3
20260506111925 55 182 0.0 0.0 0.00 0.00 0.00 83 1036.3
20260506110925 55 337 0.0 0.0 0.00 0.00 0.00 83 1036.2
20260506105926 56 337 0.0 0.0 0.00 0.00 0.00 82 1036.2
20260506105023 56 326 0.0 0.0 0.00 0.00 0.00 82 1036.1
20260506103925 56 337 0.0 0.0 0.00 0.00 0.00 82 1036.3
20260506103024 56 337 0.0 0.0 0.00 0.00 0.00 81 1036.1
20260506102025 57 337 0.0 0.0 0.00 0.00 0.00 80 1036.3
20260506101025 57 337 0.0 0.0 0.00 0.00 0.00 81 1036.1
20260506100044 56 337 0.0 0.0 0.00 0.00 0.00 81 1036.1